Wind_Speed
83 83 82 81 80 79 79 80 81 82 82 83 83 83 83 83 83 82 82 82 82 83 85 86 87 87 86 85 83 82 81 81 80 80 80 80 81 81 81 81 80 79 79 79 79 78 76 74 73 72 72 73 73 74 74 75 75 75 76 76 76 76 76 76 76 75 76 76 76 76 76 76 75 74 73 73 73 74 74 75 76 78 78 78 78
82 83 83 82 82 80 80 80 80 81 82 82 83 83 84 84 84 84 84 84 83 83 83 84 85 87 88 89 88 86 85 83 82 81 80 79 79 80 80 81 81 80 80 80 79 79 79 78 76 75 74 75 75 75 76 77 77 77 77 77 77 77 78 78 78 78 78 78 78 79 79 79 78 78 77 76 75 75 76 76 77 78 79 80 81
83 82 82 82 82 82 81 80 80 80 80 81 82 83 84 84 85 85 85 85 85 84 84 83 83 84 85 87 89 89 88 87 86 85 84 82 81 80 80 80 80 80 79 79 79 79 79 79 79 78 77 77 76 76 77 77 78 78 78 79 79 79 79 80 80 80 80 80 80 80 81 81 81 81 81 80 79 79 78 78 79 79 80 81 82
86 85 84 82 82 82 82 82 81 80 80 79 79 81 82 83 84 85 85 85 85 85 84 84 83 82 82 83 84 86 87 88 88 88 87 86 85 83 82 81 80 79 79 78 78 78 78 78 78 79 79 78 78 77 77 77 78 78 79 79 79 80 80 81 81 81 81 82 82 82 82 82 83 83 83 83 83 82 81 80 80 80 81 81 82
91 90 89 87 85 84 83 82 82 81 81 80 79 79 80 81 83 84 85 85 85 85 85 84 83 82 81 80 81 82 83 84 85 87 88 88 87 86 85 84 82 81 80 79 78 78 77 77 77 78 78 78 78 78 78 78 77 77 78 78 79 79 80 80 81 81 81 81 82 82 82 83 83 84 84 84 84 84 83 82 80 79 79 79 79
95 95 94 93 91 89 87 85 84 83 82 82 82 81 80 80 80 82 83 84 84 85 84 84 82 81 80 79 79 79 80 81 82 83 85 86 86 86 85 85 83 82 81 80 79 79 78 77 77 77 77 77 77 77 77 77 77 77 76 77 77 78 78 78 78 79 79 79 79 80 80 80 81 82 82 82 82 82 82 82 80 78 76 76 76
96 97 98 98 97 95 93 91 89 87 85 83 83 83 82 81 80 80 81 82 83 83 83 83 82 80 79 78 77 77 78 79 80 81 81 82 83 84 83 83 82 81 80 79 79 79 79 78 78 78 78 77 76 76 76 77 77 77 77 77 77 77 77 77 77 77 76 77 77 77 77 77 78 78 78 78 78 78 78 78 78 76 76 76 77
91 93 95 97 98 98 97 96 94 93 90 88 85 84 84 83 82 81 80 80 81 81 82 82 81 80 78 76 75 75 75 76 78 79 80 80 80 80 80 80 80 80 79 78 78 78 79 79 79 79 79 78 77 77 77 77 78 78 78 78 77 77 76 76 76 76 76 76 76 76 76 76 75 76 76 77 76 76 76 77 77 78 78 79 80
86 87 89 91 93 95 96 97 97 96 95 93 90 88 86 85 84 83 83 81 80 80 81 81 80 79 78 76 74 73 73 73 74 76 78 79 79 78 77 77 78 78 77 77 77 77 77 78 78 79 79 79 79 79 79 79 79 78 78 77 77 76 76 75 75 75 76 76 76 77 77 77 76 77 78 79 78 78 79 80 81 81 82 82 82
81 82 84 85 87 89 90 92 94 95 96 96 95 93 91 88 86 84 84 83 82 80 80 80 79 78 77 76 75 73 72 72 72 72 74 76 78 79 79 77 76 75 75 75 75 75 76 76 77 78 79 79 80 80 79 79 79 78 78 77 77 76 76 76 76 76 77 77 78 79 79 79 78 79 80 80 81 81 82 82 83 83 84 83 83
72 74 76 78 81 82 84 85 87 89 92 94 95 95 95 93 90 87 85 84 84 82 80 79 79 78 77 76 74 73 72 71 71 71 71 72 73 76 78 79 78 77 75 75 74 74 74 75 75 76 77 78 79 80 80 80 80 79 79 79 78 79 79 79 78 78 79 79 80 80 80 80 80 80 80 81 81 82 82 82 82 83 84 84 83
65 66 68 70 72 74 76 78 79 80 83 86 89 91 94 95 94 91 88 85 84 84 82 80 79 78 77 76 74 73 72 71 71 70 71 71 70 71 73 76 78 79 79 78 76 76 75 75 75 76 76 77 79 80 80 81 81 81 81 80 80 80 80 80 80 81 81 81 82 82 82 81 81 81 81 81 81 81 81 81 81 81 82 82 81
63 64 65 66 67 69 71 71 71 72 74 77 79 83 86 89 91 93 91 88 86 84 83 82 80 78 77 76 75 73 72 71 71 70 70 69 69 69 69 70 72 75 77 79 79 79 78 77 77 76 77 77 78 79 80 80 80 80 80 80 80 79 79 79 80 80 81 82 82 82 82 82 82 81 81 81 81 81 80 80 80 80 79 79 79
63 64 65 65 66 68 69 68 66 65 65 67 70 73 76 80 83 87 89 89 88 86 84 83 81 79 77 76 75 73 72 71 70 70 69 68 68 68 68 68 69 69 71 73 76 78 79 80 80 79 79 79 79 79 79 79 79 80 80 80 80 80 80 80 80 81 82 82 82 82 82 82 81 80 80 80 80 79 79 79 79 79 79 79 79
63 64 65 66 67 67 67 66 64 62 61 60 61 64 66 70 74 78 81 84 86 86 85 83 82 80 78 77 75 73 72 70 70 69 68 67 67 67 67 68 68 68 68 69 70 72 74 76 78 79 79 80 80 80 80 80 80 80 81 81 81 81 82 82 82 82 82 82 82 81 81 81 81 81 81 81 80 80 80 80 80 80 80 81 81
63 64 64 65 65 66 66 66 65 63 61 58 57 58 59 61 65 69 73 76 79 81 82 82 82 80 78 77 76 74 72 70 69 68 68 67 66 67 67 67 66 66 66 66 67 68 69 71 72 74 75 77 78 79 79 80 80 81 81 81 81 82 82 82 82 82 82 82 82 82 82 82 83 83 82 82 82 82 82 83 83 83 83 83 83
63 64 65 65 65 65 65 66 67 66 64 59 56 55 55 55 58 62 66 68 71 74 77 79 80 79 77 77 76 75 72 70 69 68 67 66 66 66 66 66 65 65 65 65 65 66 66 68 69 70 71 73 74 76 77 77 78 79 79 80 81 81 81 82 82 82 83 83 83 83 84 84 84 84 84 84 84 84 84 84 84 84 85 85 84
62 64 65 66 66 66 66 66 66 66 62 57 52 51 51 51 52 55 59 62 65 68 71 74 75 76 75 75 75 74 73 71 69 68 67 66 66 66 67 66 65 65 65 64 64 65 65 66 67 68 69 70 72 74 75 76 76 77 78 79 80 80 80 81 81 82 83 84 84 85 85 85 85 85 85 85 85 85 84 84 85 86 86 86 86
59 61 62 63 64 63 62 61 61 60 57 52 49 48 47 46 47 50 53 56 59 63 66 69 70 71 72 72 73 73 72 70 69 68 67 66 66 66 67 66 65 65 65 65 65 65 65 65 66 66 68 69 70 72 74 75 75 77 78 79 80 80 81 81 81 82 83 83 84 84 85 85 85 85 85 85 85 85 85 85 86 86 86 87 87
56 57 58 58 58 58 58 58 57 56 53 49 47 46 43 42 43 45 48 51 54 57 60 62 64 66 67 68 69 70 70 69 68 67 66 66 65 66 66 66 65 65 66 66 65 65 66 65 65 66 67 68 69 70 72 73 73 75 77 78 80 82 83 83 84 85 86 86 86 86 86 86 86 87 87 87 87 87 86 86 87 87 87 87 88
53 53 54 54 54 55 56 56 54 52 49 45 44 42 39 38 39 40 43 46 49 51 53 56 58 60 62 63 64 65 66 66 66 65 65 65 64 64 64 64 64 65 65 65 65 65 66 65 65 66 66 67 68 69 70 71 71 72 73 75 77 78 79 81 82 84 86 88 89 89 90 90 90 90 90 90 90 90 89 88 88 88 88 88 88
50 50 51 51 50 50 51 51 49 46 43 41 40 37 35 34 35 36 38 41 43 46 48 50 52 54 56 57 58 60 61 62 62 62 62 62 62 62 62 62 62 63 63 63 63 64 64 63 64 65 66 65 66 66 67 68 68 69 70 71 72 73 74 75 76 78 80 81 83 84 86 87 88 88 89 89 89 89 89 88 87 87 86 86 86
49 49 48 46 46 45 46 45 43 40 38 38 36 32 30 31 31 32 34 36 38 41 43 45 47 49 51 53 54 55 56 57 58 59 59 59 60 60 60 59 59 60 60 61 60 60 60 60 61 62 62 62 62 63 63 64 65 65 66 67 67 68 69 70 71 72 73 74 75 76 77 78 79 79 80 81 81 82 82 82 82 82 82 82 82
47 46 44 42 42 42 42 40 38 36 35 33 31 27 26 27 27 28 30 32 34 37 39 41 43 45 46 48 49 50 52 53 53 54 55 55 55 56 56 56 56 57 57 57 57 56 56 56 57 57 57 57 57 58 58 59 59 60 61 61 62 62 62 63 64 65 66 67 68 69 70 71 71 71 72 72 72 73 73 74 75 76 77 77 78
44 43 41 39 39 38 37 35 33 32 30 28 25 23 22 23 23 24 26 28 30 33 36 38 40 42 43 44 45 46 48 48 49 49 50 50 51 51 52 52 53 53 53 52 52 52 52 52 52 52 52 52 51 52 52 53 53 53 53 53 54 54 54 55 56 57 58 59 59 60 61 62 63 63 63 64 64 65 66 67 68 69 70 71 72
41 40 38 37 35 34 32 29 27 26 25 22 20 19 18 19 19 20 23 25 28 30 32 35 37 38 39 40 41 42 43 44 45 45 46 46 47 47 48 48 49 49 49 49 48 48 48 48 48 49 49 48 47 48 48 48 47 47 47 47 47 48 48 49 50 50 50 51 52 53 53 54 55 56 56 57 58 59 60 61 62 64 65 66 66
39 37 36 34 32 30 28 25 23 22 20 17 16 15 15 15 16 18 20 23 25 27 29 31 33 35 36 37 38 39 40 40 41 42 42 43 43 44 44 44 45 45 45 46 46 46 47 47 47 47 47 46 46 46 46 46 45 45 45 45 45 45 46 46 47 47 47 48 48 49 50 50 51 52 53 54 55 57 57 58 58 59 61 62 63
37 35 33 32 30 27 25 22 20 18 16 14 13 12 12 13 15 17 19 21 23 25 27 28 30 32 33 34 35 36 37 37 38 38 39 39 40 40 41 41 42 43 43 44 45 46 46 46 46 46 47 47 47 47 47 46 46 46 46 46 46 46 46 47 48 48 48 49 49 50 50 51 51 52 53 54 56 57 58 58 59 59 60 62 63
35 33 31 29 27 24 22 20 18 16 14 12 10 10 11 12 14 16 17 19 21 22 24 26 27 29 30 31 33 34 34 34 35 36 36 36 37 38 39 40 41 41 42 43 44 45 45 45 45 46 47 48 48 48 48 48 48 48 48 48 48 48 49 49 50 50 50 51 51 52 52 53 53 54 54 55 56 57 58 59 59 60 61 62 62
33 31 29 27 25 22 20 18 16 14 12 10 10 10 10 12 13 15 16 17 19 21 22 24 25 27 28 29 30 31 31 32 33 34 34 35 36 37 38 39 40 41 41 42 43 43 43 44 44 45 46 47 48 48 48 48 48 48 48 48 49 49 49 49 50 50 50 51 51 52 52 53 53 54 54 55 56 56 57 58 59 59 60 61 62
32 30 27 25 23 21 19 17 15 13 11 10 10 10 11 12 13 14 15 16 18 19 21 22 23 25 26 27 28 28 29 30 31 32 32 34 35 36 37 38 39 39 40 40 41 41 41 42 43 43 44 45 45 46 46 46 46 46 46 46 47 47 48 48 49 49 49 50 50 51 52 52 53 54 54 55 56 57 57 58 59 60 61 62 62
31 29 26 24 22 20 19 17 15 13 12 11 11 11 11 12 12 13 14 15 16 18 19 20 22 23 25 25 26 27 28 29 30 31 31 32 34 35 36 36 37 37 37 38 38 39 39 39 40 40 40 41 41 42 42 43 43 44 44 44 44 45 47 47 48 48 49 50 51 51 52 53 54 55 55 56 57 58 58 59 59 60 61 62 63
30 28 26 23 21 20 18 17 15 14 12 12 11 11 11 12 12 13 13 14 16 17 18 19 21 22 23 24 25 26 27 28 29 29 30 31 32 33 33 34 34 35 35 35 36 36 36 36 36 37 37 37 38 39 39 40 41 42 43 43 44 45 47 48 49 49 50 51 52 53 53 54 55 56 56 57 57 58 58 59 59 60 61 62 62
29 27 25 23 21 19 18 16 15 14 13 12 12 11 11 12 12 12 13 14 15 16 17 18 19 20 21 22 23 24 25 26 27 27 27 28 30 31 31 31 32 32 33 33 33 33 33 33 33 34 35 35 37 38 39 40 41 42 43 44 45 46 47 48 49 50 51 51 52 53 54 55 55 56 56 57 57 57 58 58 59 59 59 58 57
28 26 25 23 21 19 18 16 15 14 13 13 12 12 11 12 12 13 13 14 15 16 17 18 18 19 20 21 21 22 23 24 24 25 25 27 28 28 28 29 29 29 30 30 30 30 31 31 32 33 34 36 37 38 40 41 42 43 44 44 45 47 48 48 49 50 50 51 52 52 53 53 54 55 55 55 56 56 56 56 55 54 52 51 50
28 26 24 23 21 19 17 16 15 14 14 13 12 12 12 12 12 13 13 14 15 16 17 17 17 18 19 20 20 20 21 22 22 23 24 25 26 26 26 27 27 27 28 28 29 29 30 31 32 34 35 36 37 39 40 41 42 43 44 44 45 46 47 48 48 49 49 50 51 51 51 52 53 53 53 53 53 52 51 49 48 47 46 46 47
27 26 24 22 21 19 17 16 15 14 14 13 12 12 12 12 12 13 13 14 14 15 16 17 17 17 18 18 19 19 20 21 21 22 23 24 25 25 25 26 26 27 28 28 29 30 31 31 33 34 35 36 37 38 39 40 41 42 43 43 44 45 46 46 47 47 48 48 49 50 50 51 51 51 50 48 46 45 44 43 43 43 44 45 46
28 26 24 22 21 19 18 16 15 14 14 13 13 12 12 12 12 13 13 14 14 15 16 16 17 17 18 18 19 19 20 20 21 22 23 24 24 24 25 26 26 27 28 28 29 31 31 32 34 35 36 36 37 38 39 40 41 41 42 42 43 44 44 45 46 46 47 48 48 49 48 48 47 46 44 42 41 40 40 41 42 43 44 45 47
28 27 25 24 22 20 19 17 16 15 14 13 13 13 12 12 12 13 13 14 14 15 16 17 17 18 18 19 19 20 21 21 22 23 24 24 24 25 26 26 27 28 29 30 31 32 33 34 36 37 37 38 39 39 40 40 41 41 41 42 42 43 43 44 45 45 46 47 47 46 45 43 42 40 39 39 38 39 40 41 42 43 45 46 48
28 27 26 25 23 22 21 19 18 17 16 15 14 14 14 14 14 14 14 15 15 16 17 17 18 19 20 20 21 21 22 23 24 24 25 25 26 27 28 29 30 30 31 32 34 35 36 37 38 39 40 40 40 40 40 41 41 41 41 41 41 42 42 43 43 44 44 44 43 42 40 39 38 37 37 38 38 39 40 41 42 44 45 47 48
29 28 27 26 25 24 23 22 20 19 18 17 17 16 16 16 16 16 16 17 17 18 19 19 20 21 22 22 23 24 24 25 26 26 27 27 28 29 30 31 32 33 34 36 37 38 39 39 40 41 41 41 41 41 41 41 41 41 41 41 41 41 41 42 42 42 41 41 40 39 37 37 36 36 37 38 38 39 40 42 43 44 46 47 49
30 29 28 28 27 25 25 24 23 22 21 21 20 19 19 19 19 19 20 20 20 21 21 22 22 23 24 25 25 26 27 27 27 28 29 30 30 31 32 33 35 36 37 38 39 40 41 42 42 42 43 42 42 42 42 42 41 41 41 40 41 40 40 40 40 40 39 39 38 37 36 36 36 36 37 37 38 40 41 42 44 45 47 48 49
30 29 29 29 28 28 27 26 26 25 24 24 24 23 23 23 23 23 23 23 24 24 24 24 25 25 26 27 27 28 28 29 29 30 31 32 33 34 34 36 37 38 39 40 41 42 43 43 43 43 43 43 43 43 43 42 42 41 41 40 40 40 40 39 39 39 38 37 37 36 36 36 36 36 37 38 39 40 42 43 44 45 47 48 50
31 30 30 29 29 29 29 29 28 28 27 27 27 27 26 26 26 26 26 27 27 27 27 27 27 28 28 29 30 30 31 32 32 33 33 34 35 36 36 37 38 40 40 41 42 43 43 44 44 44 45 44 44 44 44 43 42 42 41 41 40 40 40 39 38 37 37 36 36 36 36 36 36 36 37 38 39 41 42 43 44 45 47 48 50
31 31 30 30 29 29 30 30 30 30 30 30 29 30 29 29 29 29 29 30 30 30 30 30 30 30 31 31 32 32 33 34 34 35 36 36 37 37 38 39 40 41 42 42 43 43 44 44 45 46 46 46 46 45 45 44 43 42 42 41 40 39 39 38 37 36 35 35 35 36 36 36 36 36 37 38 39 40 41 43 44 45 47 48 50
31 30 30 30 30 30 30 30 31 32 32 33 32 32 32 32 32 32 32 32 33 33 33 33 32 32 32 33 33 34 34 35 35 36 37 37 38 38 39 40 41 41 42 42 43 44 44 45 46 47 48 48 47 47 46 45 44 42 41 40 39 38 37 37 36 34 34 34 34 34 35 35 36 36 37 38 39 40 41 42 43 45 47 48 49
31 30 30 30 30 30 31 31 31 31 32 33 34 35 35 35 35 35 35 35 35 34 34 34 34 34 34 34 34 35 36 36 36 37 37 38 38 39 39 40 41 41 42 43 44 45 45 46 48 48 48 48 47 46 45 43 42 41 40 38 37 36 36 35 34 33 32 32 32 32 33 34 34 35 36 37 38 39 40 42 43 45 46 46 46
33 31 30 30 30 30 30 31 31 31 32 32 34 35 37 37 37 37 37 37 37 37 37 37 37 37 36 36 36 36 37 37 37 37 37 38 39 39 40 40 41 42 43 44 45 46 46 47 47 46 45 44 43 42 41 40 39 38 37 36 35 34 33 32 31 30 30 30 30 30 31 32 33 34 35 36 37 38 40 41 42 43 42 41 39
35 33 32 31 30 30 30 30 31 32 32 32 32 33 35 37 39 39 40 39 39 39 39 39 39 38 38 38 38 38 38 38 38 38 38 39 40 40 41 42 42 43 44 45 45 44 44 43 42 40 39 38 37 37 36 36 35 35 34 33 32 31 30 29 28 27 27 27 27 28 29 30 31 32 33 34 36 37 38 39 39 38 37 35 32
36 35 34 33 32 31 30 30 30 31 32 33 33 32 33 34 35 37 39 40 41 41 41 41 40 40 40 40 39 39 39 39 39 39 40 40 41 42 42 42 43 43 42 41 40 39 37 37 36 36 35 35 34 33 32 32 31 30 30 29 29 27 26 25 24 24 24 24 25 26 27 28 29 30 32 33 34 35 35 35 33 32 30 28 26
37 36 36 35 33 32 31 31 31 31 31 32 33 33 33 32 32 33 35 36 38 40 41 42 42 42 41 41 41 41 41 41 41 41 41 41 41 41 41 40 38 37 36 35 34 33 33 33 33 33 33 32 31 30 29 28 27 26 26 25 24 23 22 21 21 21 21 22 23 24 25 26 27 29 30 31 32 31 30 28 26 25 23 21 20
Wind_Direction
268 267 266 265 264 262 261 260 259 260 260 260 260 260 259 258 258 257 256 256 255 254 253 252 252 252 252 253 253 254 254 255 255 254 253 253 252 252 251 251 251 250 250 251 251 251 250 250 250 251 252 253 254 254 254 254 254 253 253 253 253 253 253 253 253 253 254 255 255 254 253 254 254 254 254 255 256 258 259 260 261 261 262 262 262
269 268 267 266 265 264 262 260 259 259 260 260 260 260 260 260 259 258 258 257 256 256 255 254 253 252 252 252 252 252 253 254 254 254 254 254 253 253 253 253 253 252 252 252 252 252 251 251 250 250 251 252 252 253 254 254 254 254 254 254 254 254 254 254 253 253 253 254 255 255 255 255 255 255 255 255 256 257 258 259 260 261 262 263 263
269 268 268 267 267 265 264 263 261 260 259 259 259 259 259 259 259 259 258 257 257 256 256 256 255 254 253 252 252 252 252 253 253 254 254 254 254 253 253 253 253 253 254 254 253 253 253 252 251 250 250 251 251 252 253 254 254 254 254 255 255 255 255 255 255 254 254 254 255 256 256 256 256 256 256 256 256 257 258 259 260 260 261 262 263
270 269 269 268 268 267 266 265 264 262 260 259 258 258 258 258 258 258 258 257 257 256 256 256 256 255 255 254 253 253 253 253 253 253 253 254 254 254 254 254 254 254 254 254 254 254 254 254 253 252 252 252 252 252 253 254 254 254 254 255 255 255 256 256 256 256 256 256 257 258 258 258 258 258 258 258 258 258 259 260 260 261 261 261 262
272 271 270 269 268 268 267 266 265 264 262 260 258 257 257 256 257 257 257 257 257 256 255 255 255 255 255 255 254 254 254 253 253 253 252 253 253 254 254 254 254 255 255 255 255 255 255 254 254 254 253 253 253 253 253 254 255 255 255 255 256 256 256 257 257 257 257 258 258 259 259 259 260 260 260 260 259 259 260 260 261 261 262 262 262
273 272 271 270 269 268 267 266 265 265 264 263 261 259 257 256 255 255 256 256 256 256 255 255 254 254 254 254 254 254 254 253 253 253 252 252 252 253 253 254 254 255 255 255 255 255 255 254 253 253 253 253 253 253 253 253 254 254 255 255 256 256 256 257 257 258 258 258 258 258 259 259 259 259 259 259 259 260 260 260 261 262 263 263 264
273 273 272 271 270 269 268 266 265 264 263 263 262 261 259 257 255 255 254 255 255 255 255 254 254 253 253 253 253 253 253 252 252 252 251 252 252 252 253 253 254 254 254 254 254 254 254 253 253 252 251 251 251 251 251 252 252 253 253 254 255 255 256 257 257 258 258 258 258 258 258 258 258 259 259 258 259 259 260 261 261 262 264 265 266
273 272 272 271 270 269 268 267 266 264 263 262 261 261 260 259 257 255 254 254 254 254 254 254 254 253 252 252 252 252 252 252 251 250 250 250 251 251 252 252 252 253 253 253 253 252 252 252 252 252 251 250 249 249 250 251 251 252 253 254 255 255 256 257 257 257 258 258 258 258 258 258 259 260 261 261 261 262 262 263 263 264 265 267 268
274 273 272 271 270 269 269 268 266 265 263 262 260 259 258 258 258 257 255 254 253 253 254 254 254 253 253 252 251 251 251 251 251 250 249 249 249 249 250 250 251 252 252 252 253 252 252 252 251 251 250 250 249 249 250 251 252 253 254 254 255 255 255 256 256 257 257 257 258 258 259 260 261 262 264 265 266 266 266 266 267 267 268 269 269
274 274 273 272 271 270 269 268 268 266 264 263 261 259 258 256 256 256 256 255 253 252 252 253 253 253 253 252 252 251 251 250 250 250 250 249 248 248 248 248 249 250 250 251 251 252 252 252 252 252 251 250 250 250 251 252 253 254 255 256 256 256 256 256 257 257 258 258 259 260 261 262 263 264 266 267 268 269 269 270 270 270 270 270 270
276 276 275 274 273 272 270 269 269 268 266 265 262 260 258 257 255 254 254 254 254 252 251 251 252 252 252 252 252 252 252 251 251 250 250 250 249 248 247 247 247 248 248 249 249 250 251 251 252 252 252 252 252 252 252 253 254 255 256 257 257 258 258 258 258 259 259 260 261 262 262 264 265 266 267 268 269 270 270 270 270 270 270 271 270
280 280 279 279 278 276 274 272 270 269 268 266 264 262 260 258 256 253 252 252 252 253 252 250 250 251 251 251 251 252 252 252 252 251 251 251 250 250 249 248 247 247 248 248 249 249 250 250 251 251 252 252 252 253 253 254 254 255 256 257 258 258 259 259 259 260 260 261 261 262 264 265 265 266 267 268 268 269 269 269 270 270 270 270 270
283 284 283 283 283 283 281 279 277 274 270 268 265 263 261 259 257 255 252 250 250 251 251 251 250 249 250 250 250 250 251 252 252 252 252 252 252 252 251 250 249 249 248 248 249 249 250 250 251 251 252 252 253 253 253 254 255 256 257 257 258 259 259 259 260 260 261 261 262 263 265 265 266 267 267 268 268 268 269 269 269 269 269 268 268
285 285 286 286 287 287 286 286 283 280 276 272 268 264 262 260 258 256 253 251 249 248 249 249 249 249 249 249 249 249 250 250 251 252 252 253 253 253 252 252 252 251 250 250 250 250 250 250 251 251 252 253 253 254 254 255 256 256 257 258 259 259 260 260 261 261 262 263 264 265 266 266 266 266 266 267 267 267 267 267 267 267 266 266 266
286 286 286 287 288 288 289 289 288 286 282 277 273 268 263 259 257 255 253 251 248 247 246 247 248 248 248 248 248 248 248 249 250 251 251 252 252 253 253 253 253 253 252 252 252 251 251 251 251 251 252 253 253 254 254 255 256 256 257 258 259 259 260 261 261 262 263 263 264 265 265 265 265 265 265 265 265 265 265 265 265 265 265 265 265
287 287 286 287 287 289 290 290 290 289 287 283 278 272 266 260 255 252 250 249 247 245 244 244 245 246 246 247 247 247 247 248 248 249 250 251 252 252 253 253 253 253 253 254 254 253 253 253 253 252 252 253 253 254 254 255 255 256 256 257 258 259 259 260 261 261 262 262 263 263 263 263 263 263 263 264 264 264 264 265 265 265 265 265 265
287 287 287 287 287 288 289 290 291 291 290 288 283 276 268 262 256 251 248 245 243 242 241 240 241 242 243 244 245 245 246 246 247 248 249 249 251 252 252 252 253 253 253 254 254 254 254 254 254 254 254 254 254 254 254 255 255 255 256 256 257 258 258 259 259 260 260 260 261 261 261 261 261 262 262 262 263 263 264 265 265 266 265 265 265
289 288 287 287 287 287 288 289 290 291 291 290 286 278 269 263 257 252 247 243 240 238 237 236 237 238 240 241 242 243 244 245 246 246 247 248 249 251 251 252 252 253 253 253 253 253 254 254 255 255 255 255 255 255 255 256 256 256 256 257 257 257 258 258 258 259 259 259 260 260 260 260 260 261 261 262 263 263 264 265 265 265 265 265 265
294 292 290 289 289 289 289 289 290 291 291 290 286 279 270 263 257 252 247 243 238 236 234 233 233 234 235 237 239 240 241 243 244 245 246 247 248 250 251 251 252 253 253 253 253 253 253 254 254 255 255 255 256 256 256 257 257 258 258 259 259 259 259 259 259 259 259 260 260 260 260 260 261 261 261 262 263 263 264 264 264 264 265 265 265
299 297 295 293 292 291 290 290 290 290 290 289 285 278 270 263 257 252 247 243 239 236 234 233 232 231 232 234 236 237 239 240 242 244 245 246 247 249 251 251 252 252 253 254 254 254 254 255 255 255 255 255 255 256 256 257 257 257 258 259 259 259 259 260 260 260 260 260 260 260 260 260 261 261 261 261 262 262 263 263 263 264 264 265 265
303 300 298 295 293 292 290 290 290 290 290 287 282 276 270 263 257 251 247 243 239 236 235 234 233 232 232 232 234 236 237 238 240 242 244 246 247 249 251 252 252 253 254 254 255 255 256 256 256 256 256 256 256 257 257 258 258 258 258 258 258 259 259 259 259 259 259 259 260 260 260 260 260 261 261 261 262 262 263 263 264 265 265 266 266
305 303 301 299 297 294 292 291 290 290 288 284 279 274 269 262 255 250 246 242 238 237 236 235 234 233 232 232 233 235 237 238 240 242 243 245 247 249 251 253 254 254 255 255 256 256 257 257 257 257 257 258 258 259 259 259 259 259 259 259 259 260 260 259 259 259 259 260 260 260 261 261 261 262 262 262 263 263 264 264 264 265 265 265 266
307 307 306 304 301 297 293 292 290 288 284 281 278 274 266 258 253 248 244 240 238 236 235 234 233 233 233 233 233 235 237 238 240 242 244 246 248 249 251 253 255 255 256 256 257 257 258 257 257 258 258 259 259 260 260 261 261 261 261 261 261 261 261 260 260 260 260 260 261 261 262 262 263 263 263 264 264 264 265 265 265 265 265 265 265
312 312 311 307 302 298 295 293 290 287 284 281 277 271 262 255 250 246 242 239 237 236 234 233 233 232 232 233 233 235 237 238 240 242 244 246 248 249 251 253 254 255 256 256 257 257 257 257 257 258 259 259 260 260 260 261 261 261 261 262 261 261 261 261 261 261 261 261 261 262 262 263 263 264 265 265 265 265 266 266 266 266 266 266 266
317 317 315 310 306 303 300 296 293 289 285 281 274 266 259 254 249 244 240 237 236 235 233 232 231 231 231 232 233 235 237 238 240 242 244 245 247 248 250 251 253 254 255 255 255 255 255 256 256 257 258 259 260 260 260 260 260 260 260 260 260 260 260 260 260 260 260 260 261 261 262 263 264 264 265 265 265 265 265 266 266 267 267 267 268
321 320 318 316 313 309 305 301 296 291 286 280 272 264 257 252 247 242 238 236 235 233 232 231 230 230 230 231 232 234 236 238 239 241 243 245 246 247 249 250 251 252 253 253 254 254 254 254 255 256 258 258 258 258 258 258 258 259 259 259 259 259 259 259 259 259 260 260 260 261 261 262 263 264 265 265 265 265 265 266 266 267 268 269 269
324 323 321 319 317 313 310 306 299 292 287 279 272 265 256 249 244 241 238 236 234 232 230 230 229 230 230 230 231 233 235 237 239 240 242 244 245 247 248 248 249 250 251 252 253 254 254 254 255 256 257 257 257 257 257 257 258 259 259 260 260 260 261 261 261 261 262 262 262 263 263 263 263 264 265 265 266 266 266 266 266 267 267 268 268
328 326 323 321 319 316 313 308 301 295 289 281 272 265 256 248 243 240 238 236 233 232 230 230 229 230 230 231 232 233 234 236 238 240 241 243 244 246 247 248 250 251 252 252 253 253 253 254 256 256 256 255 256 256 256 257 258 259 260 261 261 262 262 263 263 264 264 264 264 264 264 264 264 264 265 265 265 266 267 267 267 267 267 267 268
330 329 326 324 323 320 315 310 305 299 293 285 276 268 260 252 245 241 238 236 234 232 231 230 230 230 231 231 232 234 235 236 238 240 241 242 244 245 247 249 251 252 252 252 252 252 253 254 256 256 255 255 256 257 258 259 259 260 261 262 262 263 263 263 263 264 264 264 264 264 264 265 265 265 265 265 265 266 266 267 267 268 268 268 269
332 331 330 328 326 323 319 314 309 304 299 292 284 274 265 256 248 243 239 237 236 234 232 231 230 230 230 231 232 234 236 237 238 240 241 242 244 246 249 250 252 252 252 252 252 253 253 254 255 255 256 256 257 258 259 260 261 261 262 262 263 263 264 264 264 264 264 265 265 265 265 266 266 266 265 266 266 266 266 267 267 268 269 270 270
333 333 333 332 329 326 324 320 315 310 304 297 288 278 268 260 252 245 240 237 236 235 233 232 231 231 231 232 233 235 236 237 238 240 241 243 245 247 249 251 252 252 252 252 253 253 254 254 255 256 256 257 258 259 260 260 261 261 262 263 263 264 264 264 265 265 266 266 266 267 267 267 267 267 267 267 267 268 268 269 269 270 270 271 271
334 334 334 332 330 328 326 322 318 312 306 299 290 280 271 263 255 247 242 238 236 234 233 233 232 233 233 233 234 235 236 238 239 241 243 245 247 248 250 251 252 252 252 252 253 254 254 255 256 256 257 258 259 259 260 261 262 262 263 263 264 265 266 266 266 266 267 267 267 267 268 268 268 269 269 269 270 270 270 271 271 272 272 272 273
333 334 333 332 330 328 326 322 317 311 305 298 289 280 271 264 256 249 243 239 237 235 233 233 234 234 235 236 236 238 239 241 242 243 245 246 248 249 251 252 252 253 253 253 254 254 255 256 257 257 258 260 261 262 262 263 264 265 265 265 266 267 267 268 268 268 268 268 269 269 269 269 269 270 270 270 271 271 271 272 272 272 273 273 273
332 332 331 331 329 326 323 320 315 309 302 295 287 279 271 264 257 250 244 241 240 238 236 235 235 237 237 238 239 240 241 243 244 245 246 247 248 249 250 251 252 252 253 253 254 255 256 257 259 260 262 263 264 265 266 266 266 267 267 267 267 267 267 268 268 268 268 269 269 269 269 270 270 270 271 271 271 271 272 272 272 272 272 272 272
329 329 329 328 327 324 321 317 312 306 300 293 286 278 270 262 256 251 246 243 242 241 240 238 238 239 240 240 241 241 242 243 244 244 245 245 246 247 248 248 249 250 252 253 254 256 258 260 261 263 264 265 266 267 267 268 268 268 268 268 268 268 268 269 269 269 269 269 269 269 269 270 270 270 270 270 271 271 271 271 271 271 270 270 270
324 325 324 324 323 321 318 313 309 304 298 292 286 278 270 262 256 252 249 246 244 244 243 242 241 241 242 242 242 242 242 242 242 242 242 243 244 244 245 246 247 249 251 253 255 257 259 261 263 265 266 268 269 270 270 271 271 271 271 271 271 271 271 271 271 271 271 271 271 270 270 270 270 271 271 271 271 270 269 269 268 267 268 268 269
318 318 319 318 317 315 313 310 306 302 297 292 286 279 272 264 258 253 251 248 247 245 245 244 243 242 242 242 241 240 240 239 239 239 239 241 242 243 244 246 248 250 253 255 257 259 262 264 267 269 270 272 273 274 275 275 275 274 274 274 274 274 274 273 273 273 273 272 272 272 271 271 271 271 270 269 268 266 265 265 265 266 268 270 271
313 312 312 312 311 309 307 305 303 299 295 291 287 281 275 268 262 257 253 250 248 246 244 243 241 240 239 239 239 239 239 238 239 239 240 242 244 245 247 249 251 254 257 260 263 266 268 271 273 275 276 277 278 279 279 279 278 278 277 277 277 276 276 276 276 275 274 273 273 272 272 271 270 269 267 265 263 263 264 265 266 268 269 272 274
308 307 306 305 304 303 301 299 297 294 291 287 284 280 275 269 264 258 254 251 248 246 244 243 242 240 239 239 239 240 241 242 243 244 245 246 248 250 251 253 255 258 260 264 267 271 274 276 278 280 281 281 282 282 282 281 280 279 279 278 278 277 277 277 276 275 275 274 273 271 270 268 266 264 262 261 262 263 265 267 268 270 272 275 277
304 302 300 299 298 297 295 293 290 287 285 282 278 274 270 266 262 258 254 250 247 246 245 245 245 245 245 244 243 243 244 245 247 248 249 251 252 253 255 257 259 262 265 267 270 273 276 278 280 282 282 283 283 283 283 282 281 280 279 278 278 278 278 277 277 276 274 273 271 270 267 264 261 260 260 262 263 265 267 269 272 274 277 279 281
306 300 296 294 293 291 290 288 285 281 278 276 272 268 264 261 259 256 253 251 249 247 247 248 248 248 249 249 249 248 248 248 250 251 252 253 255 256 257 259 262 264 267 270 272 274 276 278 280 281 282 282 283 283 283 283 281 280 279 279 278 278 278 279 278 277 274 271 269 267 263 260 259 260 262 264 266 268 271 273 276 278 281 283 284
307 303 297 292 289 286 285 283 281 278 275 272 269 265 262 259 257 255 253 252 251 250 250 250 251 251 252 252 253 254 254 254 255 256 256 257 257 258 260 261 263 266 268 271 273 275 277 279 280 281 281 282 282 283 283 283 282 281 280 279 279 279 279 279 279 277 274 270 267 263 260 259 260 262 265 267 270 272 275 277 280 282 284 286 287
305 303 299 293 288 284 281 279 277 275 273 270 268 265 262 260 258 257 256 255 254 254 253 253 254 254 254 255 255 256 257 258 259 260 260 261 261 262 263 264 266 268 270 272 274 276 278 279 280 280 280 281 282 282 282 282 281 281 280 279 279 279 279 280 279 276 272 269 265 261 259 259 262 265 268 270 273 276 278 280 283 285 286 288 289
301 300 298 295 290 285 280 277 274 272 271 269 267 265 263 261 260 258 258 257 257 256 256 257 257 257 258 258 258 259 259 260 260 261 262 262 263 264 265 266 268 269 271 273 274 276 277 278 279 279 280 280 281 281 281 281 280 280 279 279 279 279 279 279 278 275 270 267 263 260 259 261 263 266 269 273 275 278 281 283 285 287 288 290 291
301 298 296 294 292 288 282 277 274 271 269 268 266 264 263 262 261 259 259 258 258 258 258 258 258 259 260 260 261 261 262 262 262 263 263 264 265 266 267 268 270 271 273 274 275 276 277 278 279 279 280 280 281 281 281 280 280 279 278 277 277 277 278 278 277 272 268 264 261 260 260 262 265 268 272 275 278 280 283 285 287 288 290 292 293
302 298 295 292 291 288 285 280 276 271 269 267 266 265 263 262 261 260 259 258 258 258 258 258 259 259 260 261 262 262 263 263 264 265 266 267 268 268 270 271 272 273 274 275 276 277 277 278 279 280 280 281 281 280 280 279 278 277 276 276 275 275 276 276 274 270 265 262 260 259 260 263 267 271 274 277 280 283 285 287 288 290 292 294 295
304 301 296 293 290 288 285 283 279 275 270 267 265 264 263 263 262 261 260 260 259 259 260 260 260 260 261 261 262 263 264 265 266 266 267 269 269 270 271 272 273 274 275 276 277 278 279 279 280 281 281 281 281 280 279 277 276 274 273 273 273 273 273 273 271 267 263 261 259 259 261 264 268 272 275 279 282 284 286 288 290 292 294 295 296
305 302 299 295 291 288 285 283 280 277 274 271 267 264 262 261 261 261 261 261 261 261 261 261 261 262 262 263 263 264 265 266 266 267 268 269 270 271 272 273 274 275 276 277 278 279 280 281 281 281 281 280 280 279 277 275 273 272 271 270 270 271 271 269 266 263 260 259 259 261 263 266 270 274 277 281 283 285 288 290 292 294 295 296 298
304 302 299 296 293 289 286 283 281 278 275 273 271 268 265 262 261 260 260 260 261 261 261 261 261 262 262 263 263 264 265 266 267 268 268 269 270 271 272 273 275 276 277 279 280 280 281 281 281 281 280 280 279 278 276 274 272 270 268 268 268 268 267 264 261 258 257 257 259 261 265 269 272 276 279 282 284 287 290 292 294 295 297 298 300
303 301 299 296 293 290 287 285 282 279 275 273 272 271 269 267 265 262 261 260 260 260 260 261 261 261 262 262 263 264 265 265 266 267 268 269 271 272 273 274 276 277 278 279 279 280 280 281 281 281 281 280 279 277 275 273 270 267 265 265 265 264 262 258 256 254 255 257 260 263 267 271 274 277 281 284 287 289 292 293 295 297 299 301 304
302 300 298 295 292 290 287 284 282 280 277 274 271 270 270 269 268 267 265 263 261 260 260 261 261 261 262 262 263 264 265 266 266 267 269 270 271 272 273 274 274 275 276 277 278 279 280 282 283 283 283 281 279 275 273 270 267 263 261 260 259 257 255 252 252 253 256 259 263 267 271 274 278 281 285 288 290 292 294 296 298 300 302 305 307
Height
5438 5438 5437 5438 5439 5440 5441 5441 5441 5441 5441 5441 5441 5443 5444 5445 5446 5448 5449 5450 5451 5453 5455 5457 5459 5461 5463 5465 5467 5468 5470 5472 5473 5474 5476 5479 5481 5484 5486 5487 5489 5492 5494 5495 5497 5499 5501 5503 5504 5506 5506 5507 5508 5510 5512 5514 5516 5518 5521 5523 5525 5528 5529 5530 5535 5538 5538 5538 5540 5543 5546 5548 5550 5554 5556 5557 5558 5558 5558 5559 5558 5558 5560 5562 5563
5423 5423 5423 5423 5423 5424 5426 5427 5428 5429 5428 5428 5428 5429 5430 5431 5433 5435 5436 5437 5438 5440 5442 5443 5445 5447 5450 5452 5454 5456 5459 5460 5462 5463 5465 5468 5470 5473 5475 5477 5479 5482 5483 5486 5488 5489 5491 5492 5494 5496 5496 5497 5498 5500 5502 5504 5506 5508 5511 5513 5515 5517 5518 5520 5524 5527 5528 5529 5529 5530 5534 5537 5540 5543 5545 5547 5549 5548 5548 5549 5549 5549 5550 5551 5553
5410 5410 5410 5409 5409 5409 5411 5412 5413 5415 5416 5416 5416 5416 5417 5417 5418 5420 5423 5424 5425 5427 5428 5430 5432 5434 5436 5438 5441 5443 5446 5448 5450 5452 5454 5457 5459 5461 5463 5466 5468 5471 5473 5475 5478 5479 5480 5482 5484 5486 5486 5486 5488 5489 5491 5493 5495 5498 5501 5503 5505 5506 5507 5509 5512 5515 5518 5519 5519 5519 5522 5526 5529 5531 5534 5536 5538 5538 5538 5539 5539 5540 5541 5541 5543
5396 5396 5396 5396 5396 5396 5396 5397 5398 5400 5401 5403 5404 5404 5404 5405 5405 5406 5408 5410 5412 5414 5415 5417 5419 5421 5423 5425 5427 5430 5432 5435 5437 5440 5443 5445 5448 5450 5452 5454 5457 5460 5462 5465 5466 5468 5470 5472 5474 5475 5476 5477 5479 5480 5481 5483 5485 5488 5490 5492 5494 5495 5496 5498 5501 5504 5506 5508 5510 5509 5511 5515 5517 5520 5522 5524 5526 5528 5528 5528 5529 5529 5530 5531 5532
5380 5380 5381 5382 5382 5382 5382 5383 5384 5385 5386 5388 5390 5391 5392 5392 5393 5394 5394 5396 5398 5400 5402 5404 5406 5408 5410 5412 5414 5417 5419 5421 5424 5427 5430 5433 5436 5438 5441 5443 5446 5448 5451 5453 5455 5457 5460 5462 5463 5464 5466 5468 5470 5471 5472 5473 5475 5477 5480 5482 5483 5485 5486 5487 5489 5492 5494 5498 5499 5499 5500 5503 5505 5508 5510 5512 5515 5517 5517 5518 5518 5518 5519 5520 5521
5364 5364 5364 5365 5366 5367 5368 5369 5370 5371 5372 5373 5375 5377 5378 5380 5381 5381 5382 5383 5384 5386 5389 5391 5393 5395 5397 5399 5402 5404 5406 5408 5411 5414 5417 5420 5423 5425 5429 5432 5434 5437 5439 5442 5444 5446 5449 5451 5453 5454 5456 5458 5460 5461 5462 5464 5465 5467 5470 5471 5473 5474 5475 5477 5479 5480 5483 5486 5488 5489 5490 5491 5493 5495 5498 5500 5502 5505 5506 5507 5508 5509 5509 5509 5510
5349 5348 5347 5347 5348 5350 5351 5353 5354 5356 5357 5358 5359 5361 5363 5366 5367 5369 5370 5371 5372 5373 5375 5377 5380 5382 5385 5387 5389 5392 5394 5396 5399 5402 5404 5407 5410 5414 5417 5420 5422 5425 5428 5430 5433 5435 5437 5440 5442 5444 5445 5447 5449 5451 5452 5453 5455 5457 5459 5461 5462 5464 5465 5467 5468 5470 5472 5474 5476 5478 5479 5480 5481 5483 5485 5488 5490 5493 5496 5497 5497 5499 5499 5498 5497
5335 5333 5332 5331 5331 5332 5333 5335 5336 5339 5341 5343 5345 5346 5348 5351 5353 5355 5357 5359 5360 5361 5362 5364 5367 5369 5372 5375 5377 5380 5382 5384 5387 5389 5392 5395 5399 5402 5405 5407 5410 5413 5416 5419 5421 5424 5426 5428 5431 5433 5435 5436 5438 5440 5441 5443 5444 5446 5449 5450 5452 5453 5455 5456 5457 5459 5461 5463 5465 5467 5469 5470 5472 5473 5473 5475 5480 5483 5484 5485 5486 5487 5487 5486 5485
5320 5318 5317 5316 5315 5315 5316 5316 5318 5320 5323 5326 5328 5330 5333 5336 5338 5340 5343 5345 5348 5349 5351 5352 5354 5356 5359 5362 5365 5368 5370 5373 5375 5377 5380 5384 5387 5390 5393 5396 5398 5402 5405 5408 5410 5412 5415 5417 5420 5422 5424 5425 5427 5428 5431 5432 5434 5436 5438 5439 5441 5443 5444 5445 5446 5448 5450 5452 5454 5456 5457 5459 5462 5462 5461 5463 5468 5469 5470 5471 5474 5475 5475 5475 5474
5304 5303 5302 5301 5301 5301 5300 5300 5301 5301 5304 5307 5310 5313 5316 5319 5323 5326 5328 5330 5334 5337 5339 5341 5343 5344 5347 5349 5352 5355 5358 5361 5364 5366 5369 5372 5375 5379 5382 5384 5387 5390 5393 5396 5399 5401 5403 5405 5408 5411 5413 5414 5416 5418 5420 5422 5424 5426 5427 5428 5430 5432 5433 5434 5436 5438 5439 5441 5444 5445 5446 5449 5452 5451 5451 5452 5453 5454 5456 5459 5461 5462 5462 5463 5463
5290 5289 5288 5287 5286 5286 5286 5286 5286 5286 5286 5289 5292 5294 5297 5301 5306 5310 5313 5316 5319 5323 5326 5329 5331 5333 5335 5337 5340 5343 5346 5349 5352 5355 5357 5360 5364 5367 5370 5373 5376 5379 5382 5385 5387 5389 5392 5394 5396 5399 5402 5404 5405 5407 5409 5411 5413 5415 5416 5417 5419 5420 5422 5424 5426 5428 5428 5430 5432 5433 5434 5438 5440 5439 5439 5440 5440 5441 5443 5445 5447 5448 5449 5451 5451
5279 5277 5276 5274 5273 5272 5272 5272 5272 5272 5271 5272 5274 5276 5278 5282 5287 5292 5298 5301 5304 5308 5312 5316 5319 5321 5324 5326 5328 5331 5334 5337 5340 5343 5345 5349 5353 5356 5358 5361 5364 5367 5370 5373 5376 5378 5380 5382 5385 5388 5390 5392 5394 5396 5398 5400 5402 5404 5405 5406 5408 5410 5411 5413 5415 5416 5417 5419 5421 5422 5424 5426 5427 5426 5427 5427 5427 5428 5430 5431 5433 5435 5436 5438 5439
5270 5268 5266 5264 5263 5260 5259 5258 5258 5258 5257 5257 5258 5259 5260 5264 5268 5273 5279 5285 5290 5294 5298 5301 5305 5309 5312 5314 5317 5320 5323 5325 5328 5331 5334 5338 5342 5344 5347 5349 5352 5355 5358 5361 5364 5366 5369 5371 5374 5377 5379 5381 5383 5385 5387 5389 5390 5392 5393 5395 5397 5399 5400 5402 5403 5405 5406 5407 5409 5411 5412 5412 5413 5414 5414 5414 5414 5415 5417 5418 5420 5421 5422 5424 5426
5262 5259 5257 5255 5253 5251 5248 5246 5246 5245 5244 5244 5244 5244 5245 5247 5250 5254 5260 5267 5273 5279 5283 5287 5292 5296 5300 5303 5306 5309 5311 5314 5317 5320 5324 5328 5331 5333 5335 5337 5341 5344 5347 5349 5352 5355 5358 5360 5362 5366 5369 5370 5371 5373 5375 5377 5379 5380 5382 5383 5385 5387 5388 5390 5392 5392 5393 5394 5396 5398 5399 5398 5400 5401 5401 5401 5402 5403 5404 5405 5407 5408 5409 5411 5413
5253 5251 5248 5246 5243 5240 5238 5236 5235 5233 5232 5231 5231 5231 5231 5232 5235 5238 5243 5250 5256 5262 5268 5272 5277 5283 5287 5291 5294 5297 5300 5303 5307 5310 5314 5318 5320 5322 5324 5326 5330 5333 5336 5338 5341 5344 5346 5348 5350 5354 5357 5358 5359 5362 5364 5366 5367 5369 5370 5372 5373 5375 5376 5378 5380 5380 5381 5382 5384 5385 5386 5386 5387 5389 5389 5389 5390 5391 5393 5393 5394 5395 5397 5398 5400
5242 5240 5238 5237 5234 5231 5228 5225 5224 5222 5221 5220 5219 5219 5218 5219 5221 5223 5227 5233 5239 5246 5253 5258 5263 5269 5274 5278 5282 5286 5289 5292 5296 5300 5304 5307 5310 5311 5313 5316 5320 5323 5325 5328 5330 5332 5335 5337 5339 5343 5346 5347 5348 5351 5352 5354 5356 5357 5359 5360 5362 5363 5365 5367 5368 5369 5369 5370 5372 5373 5374 5374 5375 5376 5377 5378 5379 5380 5380 5381 5382 5383 5385 5386 5388
5232 5229 5227 5225 5224 5222 5219 5216 5214 5211 5210 5209 5208 5207 5206 5207 5208 5210 5214 5219 5225 5230 5237 5243 5249 5255 5261 5266 5270 5274 5278 5282 5285 5289 5293 5297 5300 5301 5302 5306 5310 5312 5315 5318 5320 5322 5324 5326 5328 5331 5333 5335 5337 5339 5340 5342 5345 5346 5348 5349 5351 5352 5354 5356 5357 5358 5358 5359 5360 5361 5362 5362 5363 5364 5366 5367 5368 5368 5368 5370 5371 5371 5371 5373 5376
5222 5219 5216 5214 5213 5211 5209 5207 5204 5201 5199 5198 5197 5196 5196 5196 5197 5199 5202 5207 5212 5217 5223 5229 5236 5242 5248 5253 5257 5262 5268 5271 5275 5279 5283 5288 5290 5290 5292 5297 5300 5302 5305 5308 5310 5312 5314 5316 5318 5320 5322 5324 5326 5327 5328 5331 5334 5335 5336 5338 5339 5341 5343 5344 5346 5347 5347 5347 5348 5348 5349 5350 5351 5352 5353 5354 5355 5356 5357 5358 5359 5357 5358 5361 5362
5214 5210 5207 5204 5202 5201 5199 5197 5195 5192 5190 5189 5187 5186 5185 5186 5187 5189 5193 5197 5202 5206 5211 5217 5224 5230 5235 5241 5245 5251 5257 5260 5264 5269 5273 5278 5281 5280 5282 5287 5291 5293 5295 5298 5300 5302 5304 5306 5309 5311 5312 5314 5315 5316 5317 5320 5323 5324 5324 5326 5328 5329 5331 5332 5334 5335 5334 5335 5335 5336 5337 5338 5339 5341 5341 5342 5342 5343 5345 5346 5345 5344 5347 5348 5348
5206 5202 5198 5195 5193 5191 5189 5187 5185 5183 5181 5179 5178 5177 5176 5177 5178 5181 5184 5188 5193 5197 5202 5207 5213 5218 5224 5230 5235 5240 5246 5250 5255 5259 5263 5267 5271 5271 5272 5277 5281 5283 5285 5287 5290 5292 5294 5297 5299 5301 5301 5303 5304 5305 5306 5309 5312 5313 5314 5315 5316 5317 5318 5320 5322 5322 5322 5322 5323 5323 5324 5326 5327 5328 5329 5330 5330 5330 5332 5334 5332 5332 5334 5334 5334
5198 5194 5190 5187 5184 5181 5179 5177 5175 5174 5172 5171 5169 5169 5168 5169 5171 5174 5177 5181 5185 5190 5194 5199 5204 5209 5215 5220 5225 5230 5236 5241 5246 5250 5254 5258 5261 5263 5264 5267 5271 5274 5275 5277 5280 5282 5285 5288 5289 5289 5290 5292 5293 5295 5296 5298 5301 5302 5303 5304 5304 5305 5306 5308 5309 5310 5310 5310 5310 5310 5311 5312 5313 5314 5315 5316 5317 5317 5319 5321 5321 5320 5321 5321 5321
5190 5186 5182 5179 5176 5173 5170 5167 5166 5165 5164 5162 5161 5161 5162 5162 5164 5167 5170 5174 5178 5183 5187 5192 5197 5202 5207 5212 5217 5222 5227 5232 5237 5241 5245 5248 5252 5254 5256 5258 5261 5264 5266 5268 5270 5273 5276 5278 5278 5277 5279 5282 5283 5284 5285 5286 5288 5290 5291 5291 5292 5293 5294 5295 5296 5296 5297 5297 5297 5298 5298 5298 5300 5301 5302 5303 5304 5304 5306 5307 5308 5308 5308 5308 5308
5183 5179 5175 5172 5168 5165 5162 5160 5158 5157 5156 5155 5155 5155 5156 5156 5159 5162 5165 5169 5173 5177 5181 5186 5191 5196 5200 5205 5210 5214 5219 5224 5228 5232 5236 5240 5243 5246 5248 5250 5252 5254 5257 5258 5261 5264 5267 5268 5267 5268 5270 5272 5274 5275 5275 5275 5277 5278 5279 5280 5281 5282 5282 5283 5283 5284 5285 5285 5286 5286 5286 5287 5287 5288 5289 5291 5291 5292 5293 5293 5294 5295 5294 5295 5295
5177 5173 5169 5165 5161 5158 5155 5153 5152 5151 5150 5149 5149 5150 5151 5152 5154 5157 5160 5164 5168 5172 5176 5181 5185 5190 5194 5199 5203 5208 5212 5216 5221 5225 5228 5232 5235 5238 5240 5242 5243 5245 5248 5250 5252 5255 5256 5257 5258 5259 5260 5262 5264 5265 5265 5265 5266 5268 5269 5269 5270 5271 5271 5272 5272 5273 5274 5275 5275 5275 5275 5276 5276 5277 5278 5279 5280 5281 5281 5280 5281 5281 5282 5282 5282
5172 5168 5164 5160 5156 5153 5150 5148 5147 5146 5145 5145 5145 5146 5147 5149 5151 5153 5157 5160 5164 5167 5171 5176 5180 5184 5188 5193 5198 5201 5205 5209 5214 5217 5221 5224 5227 5230 5232 5234 5235 5237 5239 5242 5244 5246 5248 5249 5250 5251 5252 5254 5255 5256 5256 5257 5257 5259 5260 5260 5261 5262 5262 5262 5262 5263 5264 5264 5265 5266 5266 5266 5267 5268 5269 5270 5270 5270 5271 5270 5270 5270 5270 5271 5271
5168 5163 5160 5156 5152 5149 5146 5145 5143 5142 5142 5142 5142 5143 5144 5146 5148 5151 5154 5157 5160 5164 5168 5171 5175 5179 5183 5188 5192 5195 5199 5203 5207 5211 5214 5217 5220 5222 5224 5226 5228 5229 5232 5234 5236 5238 5240 5241 5242 5243 5244 5246 5247 5248 5248 5249 5250 5251 5252 5252 5253 5253 5253 5254 5254 5255 5256 5256 5257 5258 5258 5259 5259 5260 5260 5260 5260 5260 5261 5261 5261 5261 5261 5261 5261
5164 5160 5156 5153 5150 5146 5144 5142 5141 5140 5140 5140 5140 5141 5142 5144 5146 5149 5151 5154 5157 5161 5164 5168 5171 5175 5179 5183 5187 5190 5194 5198 5201 5204 5207 5210 5212 5215 5217 5219 5221 5223 5225 5227 5228 5230 5232 5233 5235 5236 5237 5239 5240 5240 5241 5242 5243 5244 5244 5244 5245 5246 5246 5246 5246 5247 5248 5249 5249 5250 5250 5251 5252 5252 5252 5252 5251 5251 5252 5253 5253 5253 5253 5252 5251
5161 5157 5154 5150 5148 5145 5143 5141 5140 5139 5139 5139 5139 5140 5141 5143 5145 5147 5149 5152 5155 5158 5161 5164 5167 5171 5175 5178 5182 5185 5189 5192 5195 5198 5201 5203 5206 5208 5210 5212 5214 5216 5218 5220 5221 5223 5225 5226 5228 5229 5230 5231 5232 5233 5234 5235 5236 5237 5237 5237 5238 5238 5239 5239 5239 5240 5240 5241 5242 5242 5242 5243 5244 5245 5245 5244 5244 5243 5243 5244 5244 5244 5244 5243 5242
5160 5156 5152 5149 5146 5144 5142 5140 5139 5138 5138 5138 5138 5139 5140 5142 5144 5146 5148 5150 5153 5155 5158 5161 5164 5168 5171 5174 5177 5180 5184 5187 5189 5192 5195 5198 5200 5202 5204 5206 5208 5210 5212 5213 5214 5216 5218 5220 5220 5221 5222 5223 5224 5225 5226 5227 5228 5229 5230 5230 5230 5231 5231 5232 5232 5232 5233 5233 5233 5234 5234 5235 5236 5237 5237 5236 5236 5236 5235 5235 5235 5234 5234 5234 5234
5159 5155 5151 5148 5146 5143 5141 5140 5138 5138 5137 5137 5138 5139 5140 5141 5143 5144 5146 5149 5151 5153 5156 5159 5162 5164 5167 5170 5173 5176 5179 5182 5184 5187 5190 5192 5194 5196 5198 5199 5201 5203 5205 5206 5208 5209 5211 5212 5213 5214 5215 5216 5217 5217 5218 5220 5221 5221 5222 5222 5222 5223 5223 5224 5224 5224 5224 5225 5225 5225 5226 5226 5227 5228 5228 5227 5227 5227 5227 5226 5226 5226 5225 5224 5224
5157 5154 5151 5148 5145 5143 5141 5139 5138 5138 5137 5137 5138 5138 5139 5140 5142 5143 5145 5147 5149 5151 5153 5156 5159 5161 5164 5167 5170 5172 5175 5177 5179 5182 5184 5187 5189 5190 5192 5193 5195 5197 5199 5200 5202 5203 5204 5205 5206 5207 5208 5209 5210 5210 5211 5212 5213 5213 5214 5214 5215 5215 5215 5215 5215 5216 5216 5217 5217 5217 5217 5217 5218 5218 5219 5218 5218 5218 5218 5218 5217 5217 5216 5215 5214
5156 5153 5150 5148 5145 5143 5141 5139 5138 5138 5137 5137 5138 5138 5139 5140 5141 5142 5144 5145 5147 5149 5151 5154 5156 5158 5161 5163 5166 5168 5170 5172 5175 5177 5179 5181 5183 5184 5186 5188 5189 5191 5193 5194 5195 5196 5197 5199 5200 5201 5201 5202 5203 5203 5204 5205 5205 5206 5207 5208 5208 5207 5207 5207 5207 5208 5209 5209 5209 5209 5209 5209 5209 5209 5209 5209 5209 5208 5209 5208 5208 5207 5206 5205 5205
5155 5152 5150 5147 5145 5143 5141 5139 5138 5138 5137 5137 5137 5138 5138 5139 5140 5141 5142 5144 5145 5147 5149 5151 5153 5155 5157 5159 5161 5164 5166 5168 5170 5172 5174 5176 5177 5179 5181 5183 5184 5186 5187 5188 5189 5190 5191 5192 5193 5194 5195 5196 5196 5197 5197 5198 5198 5199 5200 5201 5201 5200 5199 5199 5200 5201 5201 5201 5200 5200 5200 5200 5200 5200 5200 5200 5200 5199 5199 5199 5198 5198 5197 5196 5195
5154 5151 5149 5146 5144 5142 5141 5139 5138 5137 5137 5137 5137 5137 5137 5138 5138 5139 5141 5142 5143 5145 5146 5148 5150 5152 5154 5156 5157 5159 5161 5163 5165 5168 5170 5171 5172 5174 5176 5178 5179 5180 5182 5183 5184 5185 5186 5187 5187 5188 5189 5189 5190 5190 5191 5191 5192 5192 5192 5193 5194 5193 5192 5192 5192 5192 5193 5193 5192 5192 5192 5191 5191 5191 5191 5191 5191 5190 5190 5189 5189 5188 5187 5187 5185
5153 5150 5148 5146 5144 5142 5140 5139 5138 5137 5136 5136 5136 5136 5136 5137 5137 5138 5139 5140 5141 5142 5144 5145 5147 5149 5150 5152 5154 5156 5158 5159 5161 5164 5165 5167 5168 5170 5172 5173 5174 5175 5176 5178 5179 5180 5180 5181 5182 5183 5183 5183 5184 5184 5184 5184 5184 5185 5185 5186 5186 5185 5184 5185 5184 5184 5184 5184 5184 5184 5184 5183 5182 5182 5182 5182 5182 5181 5181 5180 5180 5179 5179 5178 5177
5151 5149 5147 5145 5143 5141 5140 5139 5138 5137 5136 5135 5135 5135 5135 5135 5136 5136 5137 5138 5139 5140 5141 5143 5144 5146 5147 5149 5150 5152 5154 5156 5158 5160 5161 5162 5164 5166 5167 5168 5169 5171 5172 5173 5174 5175 5175 5176 5177 5177 5177 5178 5177 5177 5177 5177 5177 5177 5177 5177 5177 5176 5176 5176 5175 5175 5176 5175 5174 5174 5175 5174 5173 5173 5173 5173 5173 5172 5172 5172 5172 5172 5171 5171 5170
5150 5147 5145 5143 5142 5140 5139 5138 5137 5136 5135 5134 5134 5134 5134 5134 5134 5135 5136 5136 5137 5138 5139 5140 5142 5143 5144 5145 5147 5149 5151 5152 5154 5156 5157 5159 5160 5162 5163 5164 5165 5166 5167 5168 5169 5170 5170 5171 5171 5171 5172 5171 5171 5171 5170 5170 5169 5169 5169 5169 5169 5168 5167 5167 5167 5167 5167 5166 5165 5165 5165 5165 5165 5165 5164 5164 5164 5164 5164 5164 5164 5165 5164 5163 5163
5147 5145 5143 5142 5140 5139 5137 5136 5135 5134 5133 5133 5132 5132 5132 5133 5133 5133 5134 5135 5135 5136 5137 5138 5139 5140 5141 5143 5144 5146 5147 5149 5150 5152 5153 5155 5156 5157 5159 5160 5161 5161 5162 5162 5163 5163 5164 5164 5164 5164 5164 5164 5164 5164 5163 5162 5161 5161 5161 5161 5160 5159 5159 5159 5158 5158 5158 5157 5157 5157 5157 5156 5157 5157 5157 5157 5157 5157 5157 5158 5158 5158 5157 5156 5156
5145 5143 5141 5139 5138 5137 5135 5134 5133 5132 5132 5131 5131 5131 5131 5131 5131 5132 5132 5133 5133 5134 5135 5136 5137 5138 5139 5140 5141 5143 5144 5145 5147 5148 5149 5151 5152 5153 5154 5155 5155 5156 5157 5157 5157 5157 5157 5157 5157 5157 5157 5157 5156 5156 5155 5155 5154 5153 5153 5153 5153 5152 5151 5151 5151 5150 5150 5149 5149 5149 5149 5149 5149 5150 5150 5150 5151 5151 5151 5151 5151 5150 5150 5149 5148
5141 5140 5138 5136 5135 5134 5133 5132 5131 5130 5130 5129 5129 5129 5129 5129 5129 5130 5130 5131 5131 5132 5133 5133 5134 5135 5136 5137 5138 5140 5141 5142 5143 5144 5145 5146 5147 5148 5149 5150 5150 5150 5151 5151 5151 5151 5151 5151 5150 5150 5149 5149 5149 5148 5148 5147 5147 5146 5146 5146 5145 5145 5144 5143 5143 5143 5143 5142 5141 5141 5142 5142 5143 5143 5144 5144 5145 5145 5145 5144 5144 5143 5142 5141 5140
5137 5136 5134 5133 5132 5131 5130 5129 5128 5127 5127 5127 5126 5126 5126 5126 5127 5127 5128 5128 5129 5129 5130 5131 5131 5132 5133 5134 5135 5136 5137 5138 5139 5140 5141 5142 5142 5143 5144 5144 5144 5144 5145 5144 5144 5144 5144 5144 5144 5143 5142 5142 5142 5141 5141 5140 5139 5139 5139 5138 5138 5137 5137 5136 5135 5135 5135 5135 5134 5134 5135 5136 5137 5137 5138 5138 5138 5138 5138 5137 5137 5136 5135 5133 5132
5133 5131 5130 5129 5128 5127 5126 5125 5124 5124 5124 5123 5123 5123 5123 5123 5123 5124 5124 5125 5125 5126 5127 5127 5128 5128 5129 5130 5131 5132 5132 5133 5134 5135 5136 5136 5137 5137 5138 5138 5138 5139 5139 5138 5138 5138 5138 5137 5137 5136 5135 5135 5135 5134 5134 5133 5132 5132 5132 5131 5130 5130 5129 5129 5128 5128 5128 5128 5128 5128 5129 5130 5131 5131 5131 5131 5131 5131 5131 5130 5129 5128 5127 5125 5123
5129 5127 5125 5124 5123 5122 5121 5121 5120 5120 5120 5119 5119 5119 5119 5119 5120 5120 5120 5121 5121 5122 5122 5123 5124 5124 5125 5125 5126 5127 5127 5128 5129 5130 5130 5131 5131 5132 5132 5132 5132 5132 5133 5132 5132 5131 5131 5130 5130 5129 5129 5128 5128 5127 5127 5126 5125 5125 5124 5124 5124 5123 5122 5122 5122 5121 5121 5121 5122 5122 5123 5124 5125 5125 5125 5125 5125 5125 5124 5123 5122 5121 5119 5118 5116
5124 5122 5120 5119 5117 5117 5116 5116 5115 5115 5115 5115 5114 5115 5115 5115 5115 5115 5116 5116 5117 5117 5118 5118 5119 5119 5120 5120 5121 5122 5122 5123 5123 5124 5124 5125 5125 5125 5126 5126 5126 5126 5126 5126 5125 5125 5124 5124 5123 5122 5122 5121 5121 5120 5120 5119 5119 5118 5117 5117 5117 5116 5115 5115 5116 5115 5115 5115 5116 5117 5117 5118 5119 5119 5119 5119 5119 5118 5118 5117 5115 5114 5112 5110 5108
5118 5117 5115 5113 5112 5111 5110 5110 5109 5109 5109 5109 5109 5109 5109 5110 5110 5110 5111 5111 5111 5112 5113 5113 5114 5114 5115 5115 5115 5116 5116 5117 5117 5118 5118 5119 5119 5119 5119 5119 5119 5119 5119 5119 5119 5118 5118 5117 5116 5115 5114 5114 5113 5113 5112 5112 5111 5111 5110 5110 5110 5110 5109 5109 5109 5109 5109 5109 5110 5111 5112 5112 5113 5113 5114 5113 5113 5112 5111 5110 5109 5107 5105 5103 5100
5113 5111 5110 5108 5107 5105 5104 5104 5103 5103 5103 5103 5103 5103 5103 5104 5104 5105 5105 5105 5106 5106 5107 5107 5108 5109 5109 5109 5110 5110 5110 5111 5111 5111 5112 5112 5112 5113 5113 5113 5112 5112 5112 5112 5111 5111 5111 5110 5108 5107 5107 5106 5106 5105 5105 5104 5104 5103 5103 5103 5103 5103 5103 5102 5103 5103 5103 5104 5104 5105 5106 5107 5107 5108 5108 5107 5107 5106 5105 5103 5102 5100 5098 5095 5093
5107 5106 5104 5103 5101 5100 5099 5098 5097 5097 5097 5096 5096 5097 5097 5097 5098 5098 5098 5099 5099 5100 5100 5101 5102 5102 5103 5103 5103 5104 5104 5104 5105 5105 5105 5105 5105 5106 5106 5106 5105 5105 5105 5104 5104 5103 5103 5102 5101 5100 5099 5098 5097 5097 5096 5096 5096 5096 5096 5096 5096 5096 5096 5096 5096 5097 5097 5098 5099 5100 5101 5102 5102 5102 5102 5102 5101 5100 5099 5097 5095 5093 5091 5088 5086
5101 5100 5098 5097 5096 5094 5093 5092 5091 5090 5090 5090 5090 5090 5090 5090 5091 5091 5091 5092 5092 5093 5094 5094 5095 5095 5096 5096 5097 5097 5097 5098 5098 5098 5098 5098 5098 5099 5099 5098 5098 5098 5098 5097 5096 5096 5095 5094 5093 5092 5091 5090 5089 5089 5088 5088 5088 5088 5089 5089 5090 5090 5090 5090 5091 5091 5092 5093 5094 5095 5096 5097 5097 5097 5097 5096 5095 5094 5092 5091 5089 5086 5084 5082 5079
5095 5094 5092 5091 5089 5088 5087 5086 5085 5084 5084 5083 5083 5083 5083 5083 5083 5084 5084 5085 5085 5086 5086 5087 5088 5088 5089 5089 5090 5090 5090 5091 5091 5091 5091 5091 5091 5091 5091 5091 5091 5091 5090 5089 5089 5088 5087 5086 5085 5084 5084 5083 5082 5082 5081 5081 5081 5081 5082 5083 5084 5084 5085 5085 5086 5087 5088 5089 5090 5091 5091 5092 5092 5092 5091 5091 5090 5088 5087 5085 5082 5080 5078 5076 5074
5089 5087 5086 5084 5083 5082 5081 5080 5079 5078 5077 5077 5077 5076 5076 5076 5076 5076 5077 5077 5078 5078 5079 5079 5080 5081 5081 5082 5082 5083 5083 5084 5084 5084 5084 5084 5084 5084 5084 5084 5084 5084 5083 5082 5081 5081 5080 5079 5078 5078 5077 5077 5076 5075 5075 5075 5075 5075 5076 5077 5078 5079 5079 5080 5081 5082 5083 5085 5086 5086 5087 5087 5087 5087 5086 5085 5084 5082 5081 5079 5077 5075 5073 5071 5069
5083 5080 5079 5077 5076 5075 5074 5073 5072 5071 5071 5070 5070 5070 5069 5069 5069 5069 5069 5070 5070 5070 5071 5072 5072 5073 5074 5074 5075 5076 5076 5076 5077 5077 5077 5078 5077 5077 5077 5077 5077 5077 5076 5076 5075 5074 5074 5073 5072 5071 5071 5070 5070 5069 5069 5069 5070 5070 5071 5072 5073 5074 5075 5076 5077 5079 5080 5081 5081 5082 5082 5082 5082 5082 5081 5079 5078 5076 5075 5073 5071 5070 5069 5067 5066